Weather in Nizhnyaya Pesha

Russia / Nenets Autonomous Okrug     66°45′16″N   47°45′19″E
temp.,
°C
wind,
m/s
gust,
m/s
humid.,
%
clouds,
%
prec.,
mm/h
press.,
hPa
HPBL,
m
1 march, mon
mon100:00−5sw81395100 0.6 1004509
03:00−4sw91595100 1.9 1001587
06:00−3sw101596100 1.4 996513
09:00−2sw111696100 4.3 991712
12:00+1wnw91599100 3.4 988561
15:00+1w71297100 3.4 989473
18:000w6119695 0.1 988397
21:00−4w479692 0.1 98788
2 march, tue
tue200:00−6w579784 0.1 986108
03:00−3w5109692 0.6 986303
06:00−7w589499 0.1 986126
09:00−6w5895100 0.5 987271
12:00−2nnw5988100 1.1 989722
15:00−5wnw598697 1.1 990167
18:00−7w712850 0.0 990194
21:00−7wsw7139610 0.2 989306
3 march, wed
wed300:00−5sw81493100 0.2 987388
03:00−9w61194100 1.0 988418
06:00−11wsw4695100 0.8 988209
09:00−12ne239494 0.9 99144
12:00−12nne689382 0.1 993322
15:00−15n689491 0.3 995319
18:00−17n5896100 0.1 996233
21:00−19n479698 0.3 996176
4 march, thu
thu400:00−20n4697100 0.1 996182
03:00−20n4698100 0.3 996149
06:00−20n349993 0.1 99550
09:00−17n359696 0.2 994198
12:00−15ne4691100 0.1 995387
15:00−16ne4792100 0.2 996326
18:00−17ne589598 0.1 996326
21:00−19ne589599 0.3 998258
5 march, fri
fri500:00−22nne5792100 0.1 999166
03:00−24n4694100 0.1 1001118
06:00−25n479793 0.0 1002152
09:00−24n469796 0.1 1003155
12:00−23n469597 0.0 1005297
15:00−23nnw339790 0.1 100658
18:00−25nnw239893 0.0 100720
21:00−25n239994 0.1 100819